Oribe Lozano

Ojeador - Club America
3 Dic 2028
Domingo
Continuar

Personalidad

Adaptabilidad (3) Ambición (14) Controversia (15) Lealtad (1) Presión (2) Profesionalismo (17) Deportividad (8) Temperamento (11)

Perfil

Estilo de dirección Democrático
Licencia Nacional B
Determinación 12
Gestión de personas 12
Motivación 6
Disciplina 15
Satisfacción laboral
100%
Fatiga
0%
Cargo Ojeador
Salario 81.1K p/s
Contrato 14.03.2029

Rendimiento

Comportamiento Bueno
Efectividad del entrenamiento
49%
Desarrollo de jugadores
35%
Prevención de lesiones
70%
Implementación táctica
60%

Eventos recientes

Asistió a una reunión de captación ahora
Asistió a una reunión de captación ahora
Recomendó un objetivo de fichaje ahora
Recomendó un objetivo de fichaje ahora
Evaluó a un jugador ahora
Evaluó a un jugador ahora
Evaluó a un jugador ahora
Evaluó a un jugador ahora

Actualmente siguiendo

317
Jugador Club Estado Habilidad Confianza Observado Última observación Último voto
Alexandro Bernabei Internacional Activo 133 / 133 40% 2 02.12.2028 -
Miguel Rodríguez Alavés Activo 147 / 139 40% 2 02.12.2028 -
Allan Saint-Maximin Charlotte Football Club Activo 151 / 144 40% 6 02.12.2028 -
Buba Sangaré Elche Activo 141 / 137 40% 4 01.12.2028 -
Martim Neto Elche Activo 146 / 140 40% 4 01.12.2028 -
Talles Magno New York City Activo 141 / 134 40% 4 01.12.2028 -
Jon Gorrotxategi Real Sociedad Activo 148 / 155 40% 2 01.12.2028 -
Ibrahim Fullah Charlton Athletic Activo 128 / 129 40% 1 01.12.2028 -
Felipe Obradovich Ferro Carril Oeste Activo 114 / 127 40% 1 01.12.2028 -
Erick Pulga Bahia Activo 138 / 124 40% 9 29.11.2028 -
Endrick Boca Juniors Activo 153 / 161 40% 4 29.11.2028 -
Santiago Esquivel Banfield Activo 119 / 111 40% 4 28.11.2028 -
Bojan Kovačević Cádiz Activo 136 / 144 40% 4 28.11.2028 -
Uriel Antuna Dinamo Moscow Activo 142 / 133 40% 4 28.11.2028 -
Álvaro Barreal Atlético Mineiro Activo 134 / 128 40% 2 28.11.2028 -
Ilay Feingold New England Revolution Activo 113 / 129 40% 2 28.11.2028 -
Calebe Fortaleza Activo 144 / 145 40% 2 28.11.2028 -
Martín Ojeda Orlando City Activo 132 / 136 40% 3 26.11.2028 -
Gonzalo Plata Nacional Activo 150 / 139 40% 6 25.11.2028 -
Lewis Miley Newcastle United Activo 155 / 152 40% 2 25.11.2028 -
Nahuel Tenaglia Banfield Activo 126 / 126 40% 6 25.11.2028 -
Hugo Sotelo Celta Activo 153 / 149 40% 2 25.11.2028 -
Renan Lodi Atlético Mineiro Activo 134 / 128 40% 1 25.11.2028 -
Facundo Torres Millonarios Activo 153 / 151 40% 7 23.11.2028 -
Kaiki Cruzeiro Activo 137 / 128 40% 2 23.11.2028 -
Lucas Assadi AIK Activo 137 / 120 40% 1 23.11.2028 -
Jonathan De Irastorza Independiente Activo 140 / 119 40% 3 22.11.2028 -
Agustín Giay Palmeiras Activo 149 / 129 40% 4 22.11.2028 -
Bitello Universidad de Chile Activo 154 / 148 40% 5 22.11.2028 -
Gérson Cruzeiro Activo 134 / 136 40% 3 22.11.2028 -
Urko Izeta Cádiz Activo 144 / 137 40% 1 22.11.2028 -
Johan Caicedo Deportivo Pasto Activo 110 / 126 40% 1 22.11.2028 -
Andrés Martín Racing Santander Activo 152 / 135 40% 4 20.11.2028 -
Juan Pablo Domínguez Monterrey Activo 138 / 124 40% 2 20.11.2028 -
Alan Lescano Argentinos Juniors Activo 132 / 127 40% 1 20.11.2028 -
José Paradela Las Palmas Activo 153 / 151 40% 2 19.11.2028 -
David Da Costa Portland Timbers Activo 141 / 127 40% 1 19.11.2028 -
Joaquín Mosqueira Talleres Activo 136 / 124 40% 1 19.11.2028 -
Samuel Gidi FC Cincinnati Activo 126 / 123 40% 1 19.11.2028 -
Romelle Donovan Brentford Activo 141 / 132 40% 1 19.11.2028 -
Fletcher Boyd Accrington Stanley Activo 102 / 120 40% 1 19.11.2028 -
Harry Gray Harrogate Town Activo 137 / 131 40% 1 19.11.2028 -
Samuel Lino Flamengo Activo 132 / 149 40% 4 16.11.2028 -
Rico Henry River Plate Activo 143 / 146 40% 2 16.11.2028 -
Emmanuel Latte Lath Atlanta United FC Activo 139 / 133 40% 1 16.11.2028 -
Pablo Maffeo Olympiacos Activo 146 / 140 40% 1 15.11.2028 -
Dani Ceballos RC Lens Activo 155 / 151 40% 1 15.11.2028 -
Jens Petter Hauge Bodo/Glimt Activo 153 / 138 40% 2 14.11.2028 -
Kevin Zenón Boca Juniors Activo 125 / 131 40% 4 14.11.2028 -
Tajon Buchanan Villarreal Activo 152 / 145 40% 2 13.11.2028 -
Javier Mena Aguilas Doradas Activo 131 / 113 40% 3 13.11.2028 -
Luís Esteves Atlas Activo 138 / 132 40% 1 13.11.2028 -
Carlos Baleba Norwich City Activo 154 / 163 40% 1 13.11.2028 -
Alejo Córdoba Tigre Activo 109 / 121 40% 2 12.11.2028 -
Yusi Alavés Activo 142 / 140 40% 2 12.11.2028 -
Lyle Foster Rosenborg Activo 125 / 134 40% 5 11.11.2028 -
Cucho Hernández Granada Activo 156 / 149 40% 2 11.11.2028 -
Jorge De Frutos Rayo Vallecano Activo 157 / 148 40% 3 09.11.2028 -
Ryan Gauld Vancouver Whitecaps Activo 139 / 139 40% 3 09.11.2028 -
Bongokuhle Hlongwane LA Galaxy Activo 141 / 140 40% 3 07.11.2028 -
Pau Navarro Villarreal Activo 146 / 154 40% 2 06.11.2028 -
Mateo Seoane Gimnasia La Plata Activo 121 / 119 40% 1 06.11.2028 -
Jozhua Vertrouwd Rayo Vallecano Activo 136 / 125 40% 2 05.11.2028 -
Thiago Silvero Vélez Activo 128 / 119 40% 3 04.11.2028 -
Josen Escobar Patriotas Activo 125 / 121 40% 1 04.11.2028 -
Juan Manuel Villalba Tigre Activo 119 / 115 40% 1 04.11.2028 -
Diego León Rotherham United Activo 125 / 130 40% 1 04.11.2028 -
Dieguinho Grêmio Activo 130 / 118 40% 1 04.11.2028 -
Nicolás Azambuja Nottingham Forest Activo 126 / 134 40% 1 04.11.2028 -
Jhon Arias Palmeiras Activo 130 / 136 40% 1 31.10.2028 -
Guille Rosas Boca Juniors Activo 157 / 144 40% 4 29.10.2028 -
Álex Valle Boca Juniors Activo 158 / 144 40% 5 29.10.2028 -
Carlos Soler Tigres Activo 156 / 152 40% 1 28.10.2028 -
Antony Portland Timbers Activo 139 / 129 40% 3 27.10.2028 -
Jorge Salinas Racing Santander Activo 138 / 133 40% 2 26.10.2028 -
Pedro de la Vega Columbus Crew Activo 142 / 135 40% 4 26.10.2028 -
Santiago Murillo Atletico Nacional Activo 137 / 122 40% 3 26.10.2028 -
Andrey Ivlev Nizhniy Novgorod Activo 107 / 121 40% 1 26.10.2028 -
Matías Lozano Atletico Nacional Activo 101 / 116 40% 1 26.10.2028 -
Sam Chambers Northampton Town Activo 109 / 125 40% 1 26.10.2028 -
Lewis Hall Newcastle United Activo 156 / 168 40% 1 26.10.2028 -
Santiago Sosa Yung Defensa y Justicia Activo 131 / 115 40% 2 25.10.2028 -
Tiago Peñalba San Martín Activo 109 / 115 40% 1 25.10.2028 -
Telasco Segovia Inter Miami CF Activo 139 / 128 40% 4 22.10.2028 -
Rodrigo Garro Corinthians Activo 152 / 132 40% 1 22.10.2028 -
Jonathan Bamba Chicago Fire Activo 129 / 139 40% 5 21.10.2028 -
Oussama Idrissi Malmo FF Activo 128 / 147 40% 6 20.10.2028 -
Leandro Andrade Chicago Fire Activo 127 / 138 40% 5 18.10.2028 -
Toni Fruk Talleres Activo 138 / 126 40% 3 18.10.2028 -
Sergi Cardona KAA Gent Activo 154 / 159 40% 3 17.10.2028 -
Andreas Pereira Palmeiras Activo 150 / 127 40% 1 16.10.2028 -
Tomás Porra Barracas Central Activo 115 / 111 40% 1 16.10.2028 -
Elián Giménez Sarmiento Activo 122 / 123 40% 1 16.10.2028 -
Adrien Truffert Flamengo Activo 170 / 142 40% 2 14.10.2028 -
Iván Martín Racing Santander Activo 157 / 145 40% 3 12.10.2028 -
Caio Vidal Deportivo Pereira Activo 127 / 138 40% 2 12.10.2028 -
Riqui Puig CF Montreal Activo 150 / 144 40% 4 10.10.2028 -
Ritsu Doan Gamba Osaka Activo 158 / 136 40% 4 08.10.2028 -
Samuel Lucero River Plate Activo 121 / 116 40% 2 08.10.2028 -
Riku Yamane Yokohama F. Marinos Activo 144 / 131 40% 2 07.10.2028 -
Diego Luna Real Salt Lake Activo 143 / 132 40% 1 07.10.2028 -
Benja Cremaschi Inter Miami CF Activo 134 / 135 40% 1 02.10.2028 -
Lukas Kelly-Heald Wellington Phoenix Activo 125 / 127 40% 1 02.10.2028 -
Luca Langoni Columbus Crew Activo 127 / 135 40% 4 27.09.2028 -
Breno Bidon Corinthians Activo 127 / 121 40% 2 27.09.2028 -
Kauã Moraes Flamengo Activo 135 / 128 40% 1 27.09.2028 -
Juan José Arias Real Salt Lake Activo 120 / 128 40% 2 26.09.2028 -
Mateo Mendoza Yokohama F. Marinos Activo 141 / 132 40% 1 26.09.2028 -
Nuno Moreira Vasco da Gama Activo 123 / 137 40% 3 23.09.2028 -
Fran García Betis Activo 161 / 156 40% 2 21.09.2028 -
Hamzat Ojediran Colorado Rapids Activo 134 / 131 40% 3 20.09.2028 -
Luis Sinisterra Cruzeiro Activo 135 / 148 40% 1 20.09.2028 -
Mauricio Amaro Atlanta United FC Activo 124 / 133 40% 1 20.09.2028 -
Christian Kashima Antlers Activo 124 / 149 40% 1 15.09.2028 -
Markus Karlsson Hammarby Activo 130 / 117 40% 1 14.09.2028 -
Camilo Martinez Cortulua Activo 142 / 126 40% 2 12.09.2028 -
Izan Merino Málaga Activo 142 / 132 40% 1 12.09.2028 -
Shuto Nakano Sanfrecce Hiroshima Activo 144 / 129 40% 1 10.09.2028 -
Fabricio Corbalán Gimnasia La Plata Activo 112 / 126 40% 1 10.09.2028 -
Mario García Racing Santander Activo 136 / 134 40% 1 10.09.2028 -
Alexey Miranchuk Atlanta United FC Activo 144 / 145 40% 2 07.09.2028 -
Joshua Rawlins Melbourne Victory Activo 128 / 127 40% 2 07.09.2028 -
Andrés Gómez Vasco da Gama Activo 144 / 133 40% 3 05.09.2028 -
Tobías Ramírez River Plate Activo 133 / 146 40% 2 04.09.2028 -
Liel Abada Inter Miami CF Activo 148 / 140 40% 1 04.09.2028 -
Pape Guèye Villarreal Activo 163 / 164 40% 1 04.09.2028 -
Moussa N'Diaye Al Nasr Activo 125 / 120 40% 1 30.08.2028 -
Dean Huijsen Las Palmas Activo 148 / 162 40% 1 29.08.2028 -
Igor Serrote Al Ain Activo 143 / 137 40% 1 29.08.2028 -
Ignacio Perruzzi San Lorenzo Activo 129 / 130 40% 1 28.08.2028 -
Abdoulkarim Traoré Al Ain Activo 135 / 138 40% 1 28.08.2028 -
Mbekezeli Mbokazi Chicago Fire Activo 133 / 140 40% 1 26.08.2028 -
Marius Marin Al Nasr Perdido 136 / 146 40% 1 25.08.2028 -
Marquinhos APOEL Activo 142 / 141 40% 2 22.08.2028 -
Zakaria El Ouahdi Hamburger SV Activo 143 / 140 40% 1 22.08.2028 -
Musa Barrow ES Setif Activo 135 / 146 40% 1 22.08.2028 -
Tommaso Barbieri Cremonese Activo 139 / 137 40% 1 20.08.2028 -
Che Adams Torino Activo 141 / 147 40% 1 20.08.2028 -
Jayden Addai Bari Activo 149 / 138 40% 2 19.08.2028 -
Faustino Anjorin Hellas Verona Activo 137 / 132 40% 1 19.08.2028 -
Antoine Hainaut Venezia Activo 143 / 132 40% 1 19.08.2028 -
Exequiel Palacios Lazio Activo 161 / 159 40% 1 18.08.2028 -
Tommaso Berti Cesena Activo 143 / 134 40% 1 17.08.2028 -
Alessio Zerbin Frosinone Activo 138 / 134 40% 1 17.08.2028 -
Tomáš Suslov Hellas Verona Activo 139 / 134 40% 1 17.08.2028 -
Gaspar Gijón Activo 151 / 144 40% 6 16.08.2028 -
Pablo Fornals Betis Activo 154 / 147 40% 1 16.08.2028 -
Alfon Sevilla Activo 153 / 146 40% 1 16.08.2028 -
Hugo Álvarez Celta Activo 154 / 151 40% 3 14.08.2028 -
Manu Fuster Las Palmas Activo 140 / 136 40% 4 14.08.2028 -
Javi Ontiveros Cádiz Activo 144 / 136 40% 2 13.08.2028 -
Arnaut Danjuma Deportivo La Coruña Activo 148 / 153 40% 2 13.08.2028 -
Donny van de Beek Girona Activo 150 / 144 40% 2 12.08.2028 -
Oriol Rey Levante Activo 131 / 135 40% 1 12.08.2028 -
Santi Comesaña Villarreal Activo 161 / 152 40% 1 12.08.2028 -
Álvaro Fidalgo Betis Activo 154 / 144 40% 2 11.08.2028 -
Giovani Lo Celso Betis Activo 155 / 155 40% 1 10.08.2028 -
Julien Ponceau Valladolid Activo 139 / 131 40% 1 10.08.2028 -
Pablo Martínez Málaga Activo 138 / 137 40% 1 09.08.2028 -
Marcus Tavernier Bournemouth Activo 148 / 145 40% 1 08.08.2028 -
Ilias Chair Queens Park Rangers Activo 134 / 143 40% 1 08.08.2028 -
Riki Deportivo La Coruña Activo 135 / 140 40% 1 07.08.2028 -
Marvin Park Las Palmas Activo 148 / 143 40% 1 06.08.2028 -
Pedro Díaz Rayo Vallecano Activo 150 / 148 40% 1 06.08.2028 -
Callum Brittain Middlesbrough Activo 144 / 139 40% 2 05.08.2028 -
Demarai Gray Birmingham Activo 146 / 134 40% 2 02.08.2028 -
Andrey Santos Bolton Wanderers Activo 149 / 157 40% 1 02.08.2028 -
Curro Burgos Activo 143 / 144 40% 2 01.08.2028 -
Vitaly Janelt Derby County Activo 149 / 148 40% 2 31.07.2028 -
James Justin Leeds United Activo 145 / 145 40% 2 31.07.2028 -
Jhon Solís Birmingham Activo 145 / 138 40% 1 30.07.2028 -
Enric Franquesa Leganés Activo 144 / 143 40% 1 30.07.2028 -
Adrià Pedrosa Sevilla Activo 150 / 136 40% 1 28.07.2028 -
Edu Expósito Espanyol Activo 141 / 141 40% 1 25.07.2028 -
Hwang Hee-Chan Wolverhampton Activo 144 / 133 40% 1 25.07.2028 -
Sorba Thomas Stoke City Activo 146 / 141 40% 1 24.07.2028 -
Jason Knight Bristol City Activo 139 / 136 40% 1 24.07.2028 -
Carlos Moreno Pachuca Perdido 139 / 135 65% 1 10.07.2028 -
Carlos Alcaraz Stoke City Activo 161 / 159 40% 4 30.06.2028 -
Brais Méndez RC Lens Activo 157 / 161 40% 1 30.06.2028 -
Fran Beltrán Girona Activo 150 / 143 40% 1 30.06.2028 -
Alfredo Morelos Pachuca Activo 117 / 119 65% 1 19.06.2028 Aprobar
Mawuli Mensah Ceuta Activo 117 / 119 40% 1 19.06.2028 -
Lamare Bogarde Reading Activo 137 / 142 40% 1 19.06.2028 -
Carlos Acevedo Santos Laguna Perdido 133 / 137 65% 1 12.06.2028 -
Lucas Di Yorio Santos Laguna Activo 128 / 109 65% 1 03.06.2028 Aprobar
Diego Barbosa Toluca Perdido 128 / 122 65% 1 02.06.2028 -
Jon Morcillo Almería Activo 148 / 130 40% 3 01.06.2028 -
Maroan Sannadi Athletic Bilbao Activo 137 / 144 40% 1 01.06.2028 -
Isaac Romero Sevilla Activo 151 / 152 40% 1 01.06.2028 -
David Mella Deportivo La Coruña Activo 133 / 139 40% 6 27.05.2028 -
Jofre Carreras Espanyol Activo 146 / 148 40% 5 26.05.2028 -
Jesús Areso Athletic Bilbao Activo 147 / 152 40% 1 26.05.2028 -
Hervin Goyes Deportivo Pasto Activo 106 / 104 40% 1 26.05.2028 -
Jan Bürger Northampton Town Activo 125 / 125 40% 1 26.05.2028 -
Sergio Arribas Rayo Vallecano Activo 137 / 144 40% 1 24.05.2028 -
Omar El Hilali Espanyol Activo 158 / 156 40% 2 23.05.2028 -
Désiré Doué Stade Brestois Activo 159 / 173 40% 2 22.05.2028 -
Emile Smith Rowe Cardiff City Activo 160 / 156 40% 4 22.05.2028 -
Ilias Akhomach Athletic Bilbao Activo 146 / 146 40% 4 21.05.2028 -
Kang-In Lee Villarreal Activo 165 / 154 40% 2 21.05.2028 -
David Larrubia Málaga Activo 134 / 141 40% 3 20.05.2028 -
Ramón Terrats Getafe Activo 150 / 152 40% 1 20.05.2028 -
Luka Sučić Andorra Activo 149 / 144 40% 1 20.05.2028 -
André Almeida Valencia Activo 149 / 146 40% 1 19.05.2028 -
Aimar Osasuna Activo 151 / 145 40% 6 18.05.2028 -
Malick Fofana Sunderland Activo 150 / 155 40% 1 18.05.2028 -
Celías Ingenthron Platense Activo 127 / 132 40% 1 17.05.2028 -
Augusto Bando Ascoli Activo 105 / 110 40% 1 17.05.2028 -
Jaden Philogene Wolverhampton Activo 142 / 148 40% 2 14.05.2028 -
Nico Melamed Almería Activo 137 / 134 40% 1 14.05.2028 -
Pau Cubarsí Real Sociedad Activo 155 / 161 40% 3 13.05.2028 -
Josh Nichols Oldham Athletic Activo 123 / 121 40% 1 13.05.2028 -
Riquelme Thompson-Jones Accrington Stanley Activo 103 / 108 40% 1 10.05.2028 -
Tobiáš Pališčák Zlin Activo 103 / 99 40% 2 08.05.2028 -
Félix Correia LOSC Lille Activo 139 / 140 40% 1 08.05.2028 -
Jonathan Dubasin Osasuna Activo 149 / 145 40% 4 05.05.2028 -
Íñigo Vicente Racing Santander Activo 130 / 135 40% 1 05.05.2028 -
Ismaïla Sarr Crystal Palace Activo 149 / 147 40% 2 04.05.2028 -
Antony Betis Activo 154 / 159 40% 1 04.05.2028 -
Oihan Sancet Athletic Bilbao Activo 161 / 163 40% 4 03.05.2028 -
Marc Bernal Sevilla Activo 148 / 159 40% 1 30.04.2028 -
Héctor Fort Real Sociedad Activo 139 / 153 40% 1 30.04.2028 -
Ademola Lookman Atlético Madrid Activo 166 / 157 40% 1 27.04.2028 -
Samuel Edozie Southampton Activo 129 / 138 40% 1 26.04.2028 -
Mikel Jauregizar Athletic Bilbao Activo 167 / 163 40% 1 25.04.2028 -
Josh Acheampong Everton Activo 136 / 154 40% 1 25.04.2028 -
João Simões Sporting CP Activo 132 / 135 40% 1 24.04.2028 -
Roberto Fernández Braga Activo 145 / 141 40% 2 22.04.2028 -
Ryunosuke Sato Eibar Activo 132 / 134 40% 1 21.04.2028 -
Lucas Høgsberg RC Strasbourg Activo 139 / 143 40% 1 19.04.2028 -
Ben Gannon Doak Charlton Athletic Activo 148 / 147 40% 2 16.04.2028 -
Antonio Blanco Alavés Activo 146 / 152 40% 2 12.04.2028 -
Pablo Torre Mallorca Activo 146 / 156 40% 2 10.04.2028 -
Jaidon Anthony Derby County Activo 141 / 141 40% 2 09.04.2028 -
Ez Abde Betis Activo 155 / 151 40% 1 04.04.2028 -
Mikkel Damsgaard Brentford Activo 162 / 156 40% 1 02.04.2028 -
Pote Sporting CP Activo 159 / 163 40% 1 31.03.2028 -
Javi Puado Espanyol Activo 157 / 154 40% 1 27.03.2028 -
Christantus Uche Getafe Activo 138 / 148 40% 1 24.03.2028 -
Tyrhys Dolan Espanyol Activo 150 / 142 40% 1 21.03.2028 -
Thiago Almada LOSC Lille Activo 159 / 149 40% 1 21.03.2028 -
Geny Sporting CP Activo 155 / 156 40% 1 20.03.2028 -
Zito Luvumbo Cagliari Activo 139 / 134 40% 1 19.03.2028 -
Nicolás Castro Toluca Activo 135 / 137 40% 1 18.03.2028 Más información
Danilo Botafogo Activo 157 / 137 40% 1 31.12.2027 -
Anthony Lozano Santos Laguna Activo 131 / 133 51% 1 12.07.2027 -
Ben Sheaf Wrexham Activo 144 / 125 40% 1 06.07.2027 -
Jordan Pickford Everton Activo 153 / 152 40% 1 28.06.2027 -
Ismael Díaz Leon Activo 138 / 134 51% 1 21.06.2027 -
Emiliano Martínez Chelsea Activo 167 / 156 40% 1 18.06.2027 -
Aune Heggebø West Bromwich Albion Activo 131 / 120 40% 5 29.05.2027 -
Ivo Mammini Beitar Jerusalem Activo 111 / 122 40% 4 29.05.2027 -
Shea Charles Southampton Activo 130 / 133 40% 1 29.05.2027 -
Kamory Doumbia Stade Brestois Activo 139 / 134 40% 1 27.05.2027 -
Jordan Zemura Udinese Activo 136 / 138 40% 2 25.05.2027 -
Hicham Boudaoui OGC Nice Activo 133 / 138 40% 1 25.05.2027 -
Tommaso Pobega Bologna Activo 133 / 142 40% 4 24.05.2027 -
Lamine Camara Monaco Activo 145 / 138 40% 2 24.05.2027 -
Kévin Danois AJ Auxerre Activo 125 / 143 40% 6 23.05.2027 -
Adrián Bernabé Parma Activo 131 / 133 40% 2 22.05.2027 -
Jackson Muleka Konyaspor Activo 111 / 134 40% 2 21.05.2027 -
Tyrese Campbell Sheffield United Activo 121 / 125 40% 8 21.05.2027 -
Sam Bell Bristol City Activo 128 / 127 40% 2 20.05.2027 -
Sidny Lopes Cabral Trabzonspor Activo 117 / 127 40% 3 19.05.2027 -
Malik Mothersille Stockport County Activo 111 / 120 40% 1 19.05.2027 -
Yousef Salech Cardiff City Activo 124 / 118 40% 3 17.05.2027 -
Cristian Cásseres Toulouse FC Activo 128 / 132 40% 1 17.05.2027 -
Oh Hyeon-Gyu Besiktas Activo 143 / 109 40% 4 14.05.2027 -
Ekain Orobengoa Real Sociedad Activo 99 / 100 40% 1 14.05.2027 -
Rafael Navarro Famalicao Activo 129 / 120 40% 2 12.05.2027 -
Víctor Gómez Braga Activo 144 / 137 40% 3 11.05.2027 -
Unai Gómez Udinese Activo 147 / 134 40% 3 11.05.2027 -
Sergi Altimira Sporting CP Activo 148 / 134 40% 4 07.05.2027 -
Bradley Locko Stade Brestois Activo 131 / 137 40% 1 07.05.2027 -
Marezi Portsmouth Activo 125 / 131 40% 1 03.05.2027 -
Caleb Yirenkyi Coventry City Activo 141 / 143 40% 2 02.05.2027 -
Ngal'Ayel Mukau LOSC Lille Activo 143 / 135 40% 5 02.05.2027 -
Yunus Akgün Galatasaray Activo 138 / 139 40% 5 01.05.2027 -
Iván Fresneda Sporting CP Activo 141 / 151 40% 4 29.04.2027 -
Gabriel Sara Galatasaray Activo 129 / 146 40% 2 26.04.2027 -
Stephen Amankona Aduana Stars Activo 115 / 83 40% 1 21.04.2027 -
Dale Taylor Blackpool Activo 122 / 120 40% 2 20.04.2027 -
Wilfried Singo Galatasaray Activo 139 / 154 40% 3 19.04.2027 -
Josh Coburn Millwall Activo 113 / 116 40% 2 17.04.2027 -
Ernest Muçi Trabzonspor Activo 124 / 132 40% 1 17.04.2027 -
Samson Baidoo RC Lens Activo 140 / 146 40% 1 14.04.2027 -
Caspar Jander Southampton Activo 120 / 126 40% 1 12.04.2027 -
Milan van Ewijk Coventry City Activo 142 / 125 40% 1 12.04.2027 -
Timothy Witsel FC Metz Activo 129 / 130 40% 1 11.04.2027 -
Tariq Lamptey Queens Park Rangers Activo 140 / 126 40% 1 08.04.2027 -
Mario Dorgeles Braga Activo 133 / 131 40% 2 07.04.2027 -
Ilyas Ansah Hull City Activo 127 / 135 40% 3 03.04.2027 -
Quentin Merlin Stade Rennais Activo 139 / 128 40% 1 30.03.2027 -
Wandile Duba ASO Chlef Activo 122 / 101 40% 1 28.03.2027 -
Andrea Colpani Monza Activo 137 / 141 40% 4 24.03.2027 -
Théodore Lefèvre Tours Activo 124 / 123 40% 1 22.03.2027 -
Habib Diarra Sunderland Activo 150 / 143 40% 1 21.03.2027 -
Samuel Dahl Benfica Activo 141 / 139 40% 2 18.03.2027 -
Lorent Tolaj Plymouth Argyle Activo 128 / 116 40% 1 17.03.2027 -
Duk Atlas Activo 118 / 122 40% 1 07.03.2027 -
Gustavo Silva Vitoria Guimaraes Activo 138 / 127 40% 1 05.03.2027 -
Majid Moharrami Rah Ahan Activo 112 / 111 40% 3 03.03.2027 -
Mattéo Guendouzi Fenerbahce Activo 141 / 153 40% 1 02.03.2027 -
Luis Caicedo Spartak 1918 Activo 99 / 88 40% 1 24.02.2027 -
Pedro Henrique Shakhtar Activo 133 / 129 40% 1 18.02.2027 -
Sorriso Famalicao Activo 123 / 134 40% 1 16.02.2027 -
Lucas Varaldo Morelia Activo 117 / 126 40% 1 12.02.2027 -
Gustavo Mantuan Zenit Activo 122 / 130 40% 2 09.02.2027 -
Brayan Gil Baltika Activo 123 / 121 40% 1 07.02.2027 -
Maxim Glushenkov Zenit Activo 134 / 134 40% 1 28.01.2027 -
Jhon Jhon Zenit Activo 141 / 133 40% 1 28.01.2027 -
Mamadou Sangaré Brentford Activo 141 / 133 40% 1 18.01.2027 -
Joe Gelhardt Hull City Activo 130 / 127 40% 1 16.01.2027 -
Enrico Delprato Parma Activo 137 / 144 40% 1 03.01.2027 -
Nicolò Fagioli Fiorentina Activo 137 / 139 40% 1 01.01.2027 -
Leroy Sané Galatasaray Activo 149 / 163 40% 1 01.08.2026 -